Weather History for KCKC - June, 2013

Change the Weather History Date:

Sunday, June 23, 2013

  Actual Average Record
Temperature  
Mean Temperature 62 °F -  
Max Temperature 69 °F 68 °F 82 °F (2005)
Min Temperature 55 °F 48 °F 37 °F (2001)
Degree Days  
Heating Degree Days 3    
Growing Degree Days 12 (Base 50)    
Moisture  
Dew Point 57 °F    
Average Humidity 88    
Maximum Humidity 94    
Minimum Humidity 73    
Precipitation  
Precipitation 0.01 in - - ()
Sea Level Pressure  
Sea Level Pressure 29.85 in    
Wind  
Wind Speed 4 mph (ESE)    
Max Wind Speed 9 mph    
Max Gust Speed 23 mph    
Visibility 4 miles    
Events Fog , Rain , Thunderstorm    
Averages and records for this station are not official NWS values.
T = Trace of Precipitation, MM = Missing Value Source: NWS Daily Summary

Daily Weather History Graph

Daily Weather History Graph

Search for Another Location

Airport or City:

Trip Planner

Search our weather history database for the weather conditions in past years. The results will help you decide how hot, cold, wet, or windy it might be!

Date:

Astronomy

Jun. 23, 2013 Rise Set
Actual Time 5:03 AM CDT 9:04 PM CDT
Civil Twilight 4:22 AM CDT 9:45 PM CDT
Nautical Twilight 3:25 AM CDT 10:42 PM CDT
Astronomical Twilight 1:49 AM CDT 12:17 AM CDT
Moon 9:09 PM CDT (6/23) 5:26 AM CDT (6/23)
Length of Visible Light 17h 23m
Length of Day
16h 01m
Full, 100% of the Moon is Illuminated
Jun 23
Full
Jun 29
Last Quarter
Jul 8
New
Jul 15
First Quarter
Jul 22
Full

Hourly Weather History & Observations

Time (CDT) Temp. Dew Point Humidity Pressure Visibility Wind Dir Wind Speed Gust Speed Precip Events Conditions
12:14 AM 55.4 °F 53.6 °F 94% 29.96 in 1.2 mi ENE 8.1 mph - N/A   Overcast
12:34 AM 55.4 °F 53.6 °F 94% 29.97 in 1.8 mi NE 3.5 mph - N/A   Overcast
12:54 AM 57.2 °F 53.6 °F 88% 29.96 in 2.0 mi Calm Calm - N/A   Overcast
1:13 AM 57.2 °F 53.6 °F 88% 29.97 in 2.5 mi NNE 3.5 mph - N/A   Overcast
1:33 AM 57.2 °F 53.6 °F 88% 29.96 in 2.5 mi Calm Calm - N/A   Overcast
1:54 AM 57.2 °F 53.6 °F 88% 29.94 in 2.5 mi Calm Calm - N/A   Overcast
2:13 AM 57.2 °F 53.6 °F 88% 29.93 in 3.0 mi NNE 4.6 mph - N/A   Overcast
2:33 AM 55.4 °F 53.6 °F 94% 29.92 in 2.5 mi North 3.5 mph - N/A   Overcast
2:53 AM 57.2 °F 53.6 °F 88% 29.91 in 3.0 mi North 3.5 mph - N/A   Overcast
3:13 AM 57.2 °F 53.6 °F 88% 29.92 in 3.0 mi ENE 3.5 mph - N/A   Overcast
3:33 AM 57.2 °F 53.6 °F 88% 29.92 in 3.0 mi Calm Calm - N/A   Overcast
3:53 AM 57.2 °F 53.6 °F 88% 29.92 in 1.2 mi East 3.5 mph - N/A   Overcast
4:14 AM 57.2 °F 53.6 °F 88% 29.91 in 0.2 mi East 3.5 mph - N/A Fog Fog
4:34 AM 57.2 °F 53.6 °F 88% 29.91 in 0.2 mi ENE 3.5 mph - N/A Fog Fog
4:53 AM 57.2 °F 55.4 °F 94% 29.90 in 0.2 mi Calm Calm - N/A Fog Fog
5:13 AM 57.2 °F 55.4 °F 94% 29.90 in 0.2 mi Calm Calm - N/A Fog Fog
5:33 AM 57.2 °F 55.4 °F 94% 29.89 in 0.2 mi NE 5.8 mph - N/A Fog Fog
5:54 AM 57.2 °F 53.6 °F 88% 29.89 in 0.2 mi NE 4.6 mph - N/A Fog Fog
6:14 AM 57.2 °F 55.4 °F 94% 29.89 in 0.2 mi Calm Calm - N/A Fog Fog
6:33 AM 57.2 °F 55.4 °F 94% 29.89 in 0.2 mi ENE 3.5 mph - N/A Fog Fog
6:53 AM 57.2 °F 55.4 °F 94% 29.88 in 0.2 mi Calm Calm - N/A Fog Fog
7:13 AM 57.2 °F 55.4 °F 94% 29.88 in 0.2 mi ENE 5.8 mph - N/A Fog Fog
7:33 AM 57.2 °F 55.4 °F 94% 29.88 in 0.2 mi ENE 3.5 mph - N/A Fog Fog
7:53 AM 59.0 °F 55.4 °F 88% 29.90 in 0.2 mi Calm Calm - N/A Fog Fog
8:14 AM 59.0 °F 57.2 °F 94% 29.90 in 0.2 mi ENE 3.5 mph - N/A Fog Fog
8:33 AM 60.8 °F 57.2 °F 88% 29.88 in 0.2 mi NE 6.9 mph - N/A Fog Fog
8:54 AM 60.8 °F 57.2 °F 88% 29.88 in 0.2 mi Calm Calm - N/A Fog Fog
9:14 AM 60.8 °F 57.2 °F 88% 29.88 in 0.2 mi Calm Calm - N/A Fog , Thunderstorm Fog
9:33 AM 60.8 °F 57.2 °F 88% 29.87 in 0.2 mi Calm Calm - N/A Fog Fog
9:54 AM 60.8 °F 59.0 °F 94% 29.84 in 0.2 mi ENE 5.8 mph - N/A Fog Fog
10:13 AM 60.8 °F 57.2 °F 88% 29.83 in 0.2 mi SE 3.5 mph - N/A Rain Light Rain
10:34 AM 60.8 °F 59.0 °F 94% 29.79 in 0.2 mi ENE 8.1 mph - N/A Rain Light Rain
10:53 AM 60.8 °F 59.0 °F 94% 29.77 in 0.2 mi ENE 9.2 mph - N/A   Light Drizzle
11:13 AM 62.6 °F 59.0 °F 88% 29.75 in 0.2 mi ENE 9.2 mph 23.0 mph 0.01 in Rain Light Rain
11:33 AM 62.6 °F 59.0 °F 88% 29.83 in 0.8 mi SSE 5.8 mph - 0.01 in   Light Drizzle
11:54 AM 60.8 °F 57.2 °F 88% 29.84 in 0.2 mi SSE 5.8 mph - 0.01 in Rain Light Rain
12:14 PM 60.8 °F 57.2 °F 88% 29.84 in 0.2 mi Calm Calm - N/A   Drizzle
12:34 PM 60.8 °F 57.2 °F 88% 29.83 in 0.2 mi East 6.9 mph - N/A Fog Fog
12:53 PM 62.6 °F 59.0 °F 88% 29.82 in 0.5 mi East 6.9 mph - N/A Fog Fog
1:13 PM 62.6 °F 59.0 °F 88% 29.81 in 2.0 mi East 5.8 mph - N/A   Overcast
1:34 PM 62.6 °F 59.0 °F 88% 29.81 in 1.0 mi ESE 4.6 mph - N/A   Overcast
1:53 PM 62.6 °F 60.8 °F 94% 29.80 in 0.2 mi ESE 5.8 mph - N/A Fog Fog
2:13 PM 64.4 °F 60.8 °F 88% 29.79 in 4.0 mi East 6.9 mph - N/A   Overcast
2:34 PM 64.4 °F 60.8 °F 88% 29.79 in 5.0 mi ESE 5.8 mph - N/A   Overcast
2:54 PM 64.4 °F 60.8 °F 88% 29.79 in 7.0 mi ESE 5.8 mph - N/A   Mostly Cloudy
3:13 PM 64.4 °F 60.8 °F 88% 29.78 in 7.0 mi East 4.6 mph - N/A   Mostly Cloudy
3:33 PM 64.4 °F 60.8 °F 88% 29.78 in 7.0 mi ESE 6.9 mph - N/A   Scattered Clouds
3:53 PM 68.0 °F 62.6 °F 83% 29.78 in 10.0 mi SE 5.8 mph - N/A   Clear
4:13 PM 68.0 °F 60.8 °F 78% 29.77 in 10.0 mi SSE 5.8 mph - N/A   Clear
4:33 PM 66.2 °F 60.8 °F 83% 29.77 in 10.0 mi SE 4.6 mph - N/A   Mostly Cloudy
4:54 PM 66.2 °F 60.8 °F 83% 29.77 in 10.0 mi SE 4.6 mph - N/A   Mostly Cloudy
5:13 PM 69.8 °F 62.6 °F 78% 29.77 in 10.0 mi SSE 6.9 mph - N/A   Scattered Clouds
5:34 PM 68.0 °F 60.8 °F 78% 29.77 in 10.0 mi South 9.2 mph - N/A   Mostly Cloudy
5:53 PM 69.8 °F 60.8 °F 73% 29.77 in 10.0 mi South 8.1 mph - N/A   Scattered Clouds
6:13 PM 66.2 °F 60.8 °F 83% 29.77 in 10.0 mi South 5.8 mph - N/A   Scattered Clouds
6:34 PM 66.2 °F 59.0 °F 78% 29.78 in 10.0 mi South 6.9 mph - N/A   Clear
6:53 PM 68.0 °F 60.8 °F 78% 29.78 in 10.0 mi South 8.1 mph - N/A   Clear
7:13 PM 66.2 °F 60.8 °F 83% 29.78 in 10.0 mi South 4.6 mph - N/A   Clear
7:33 PM 66.2 °F 59.0 °F 78% 29.78 in 10.0 mi South 5.8 mph - N/A   Clear
7:53 PM 64.4 °F 59.0 °F 83% 29.79 in 10.0 mi South 3.5 mph - N/A   Clear
8:14 PM 64.4 °F 59.0 °F 83% 29.80 in 10.0 mi South 4.6 mph - N/A   Clear
8:34 PM 62.6 °F 57.2 °F 82% 29.80 in 10.0 mi SSW 5.8 mph - N/A   Clear
8:53 PM 60.8 °F 57.2 °F 88% 29.80 in 10.0 mi SSW 4.6 mph - N/A   Clear
9:14 PM 60.8 °F 57.2 °F 88% 29.81 in 7.0 mi SSW 3.5 mph - N/A   Clear
9:34 PM 60.8 °F 57.2 °F 88% 29.82 in 10.0 mi WSW 4.6 mph - N/A   Clear
9:53 PM 59.0 °F 55.4 °F 88% 29.83 in 7.0 mi SW 3.5 mph - N/A   Clear
10:13 PM 59.0 °F 55.4 °F 88% 29.83 in 7.0 mi SW 3.5 mph - N/A   Clear
10:33 PM 57.2 °F 55.4 °F 94% 29.83 in 7.0 mi Calm Calm - N/A   Clear
10:54 PM 59.0 °F 55.4 °F 88% 29.83 in 7.0 mi SW 3.5 mph - N/A   Clear
11:14 PM 60.8 °F 55.4 °F 82% 29.83 in 10.0 mi SW 5.8 mph - N/A   Clear
11:33 PM 60.8 °F 55.4 °F 82% 29.84 in 10.0 mi SW 6.9 mph - N/A   Clear
11:54 PM 60.8 °F 55.4 °F 82% 29.84 in 10.0 mi SW 5.8 mph - N/A   Clear